CAPE
8 3 6 5 5 3 3 1 0 0 0 0 0 0 0 0 0 5 4 24 0 51 46 8 0 0 0 0 0 0 0 0 0 0 0 0 0 0 0 0 0 0 0
4 4 0 1 1 1 1 1 0 0 0 0 0 0 0 0 0 4 6 1 0 14 34 2 0 0 0 0 0 0 0 0 0 0 0 0 0 0 0 0 0 0 0
0 1 0 0 0 0 0 0 0 0 0 0 0 0 0 1 12 8 0 0 0 4 39 0 0 0 0 0 0 0 0 0 0 0 0 0 0 0 0 0 0 0 0
0 0 0 0 0 0 0 0 0 0 0 0 0 0 0 0 0 0 0 0 19 30 41 0 0 0 0 0 0 0 0 0 0 0 0 0 0 0 0 0 0 0 0
0 0 0 0 0 0 0 0 0 0 0 0 0 0 0 0 0 0 0 0 0 0 0 0 0 0 0 0 0 0 0 0 0 0 0 0 0 0 0 0 0 0 0
0 0 0 0 0 0 0 0 0 0 0 0 0 0 0 0 0 0 0 0 0 0 0 0 0 0 0 0 0 0 0 0 0 0 0 0 0 0 0 0 0 0 0
0 0 0 0 0 0 0 0 0 0 0 0 0 0 0 0 0 0 7 0 0 0 0 0 0 0 0 0 0 0 0 0 0 0 0 0 0 0 0 0 0 0 0
0 0 0 0 0 0 0 0 0 0 0 0 0 0 0 0 0 0 7 0 0 0 0 0 0 0 0 0 0 0 0 0 0 0 0 0 0 0 0 0 0 0 0
0 0 0 0 0 0 0 0 0 0 0 0 2 21 30 5 0 0 13 1 0 0 0 0 0 0 0 0 0 0 0 0 0 0 0 0 0 0 0 0 0 0 0
0 1 0 0 0 0 0 0 0 0 0 0 27 64 80 15 2 0 5 7 0 0 0 0 0 0 0 0 0 0 0 0 0 0 0 0 0 0 0 0 0 0 0
4 0 0 0 0 0 0 0 0 0 0 0 1 71 130 95 7 0 0 0 0 0 0 0 0 0 0 0 0 0 0 0 0 0 0 0 0 0 0 0 0 0 0
4 9 2 0 0 0 0 0 0 0 0 0 0 71 132 132 73 9 0 0 0 0 1 0 0 0 0 0 0 0 0 0 0 0 0 0 0 0 0 0 0 0 0
0 0 3 8 0 0 0 7 16 20 24 62 47 83 150 56 6 7 0 0 0 0 0 0 0 0 0 0 0 0 0 0 0 0 0 0 0 0 0 0 0 0 0
0 0 0 0 10 3 0 1 41 52 65 63 69 77 158 55 8 0 0 0 0 0 0 0 0 0 0 0 0 0 0 0 0 0 0 0 0 0 0 0 0 0 0
0 0 0 0 6 8 0 0 9 61 66 54 8 23 0 0 0 0 0 0 0 0 0 0 0 0 0 0 0 0 0 0 0 0 0 0 0 0 0 0 0 0 0
0 0 0 0 0 0 0 9 0 0 0 0 0 0 0 0 0 1 0 0 0 0 0 0 0 0 0 0 0 0 0 0 0 0 0 0 0 0 0 0 0 0 0
0 0 0 9 68 44 0 0 0 0 0 0 0 0 0 1 0 0 0 0 0 0 0 0 0 0 0 0 0 0 0 0 0 0 0 0 0 0 0 0 0 0 0
1 85 11 0 0 0 0 0 0 1 0 1 0 0 0 1 0 0 0 0 0 0 0 0 0 0 0 0 0 0 0 0 0 0 0 0 0 0 0 0 0 0 0
0 5 0 0 0 0 0 0 0 0 0 1 1 1 0 0 0 0 0 0 0 0 0 0 0 0 0 0 0 0 0 0 0 0 0 0 0 0 0 0 0 0 0
0 0 0 0 0 0 0 0 0 0 0 1 0 0 0 0 0 0 0 0 0 0 0 0 0 0 0 0 0 0 0 0 0 0 0 0 0 0 0 0 0 0 0
0 0 0 0 0 0 0 0 0 0 0 0 0 0 0 0 0 0 0 0 0 0 0 0 0 0 0 0 0 0 0 0 0 0 0 0 0 0 0 0 0 1 3
0 0 0 0 0 0 0 0 0 0 0 0 0 0 0 0 0 0 0 0 0 0 0 0 0 0 0 0 0 0 0 0 0 0 0 0 0 0 0 0 0 0 0
0 0 0 0 0 0 0 0 0 0 0 0 0 0 0 0 0 0 0 0 0 0 0 0 0 0 0 0 0 0 0 0 0 0 0 0 0 0 0 0 0 0 0
0 0 0 0 0 0 0 0 0 0 0 0 0 0 0 0 0 0 0 0 0 0 0 0 0 0 0 0 0 0 0 0 0 0 0 0 0 0 0 0 0 0 0
0 0 0 0 0 0 0 0 0 0 0 0 0 0 0 0 0 0 0 0 0 0 0 0 0 0 0 0 0 0 0 0 0 0 0 0 0 0 0 0 1 0 2
0 0 0 0 0 0 0 0 0 0 0 0 0 0 0 0 0 0 0 0 0 0 0 0 0 0 0 0 0 0 0 0 0 0 0 0 0 0 0 0 0 0 0
CIN
-0 -0 -0 -0 -0 -0 -0 -0 -0 -0 -0 -0 -0 -0 -0 -0 -0 -138 -195 -139 -0 -108 -129 -189 -0 -0 -0 -0 -0 -0 -0 -0 -0 -0 -0 -0 -0 -0 -0 -0 -0 -0 -0
-0 -0 -0 -0 -0 -0 -0 -0 -0 -0 -0 -0 -0 -0 -0 -0 -13 -150 -154 -65 -0 -108 -196 -126 -0 -0 -0 -0 -0 -0 -0 -0 -0 -0 -0 -0 -0 -0 -0 -0 -0 -0 -0
-0 -0 -0 -0 -0 -0 -0 -0 -0 -0 -0 -0 -0 -0 -0 -92 -80 -122 -0 -0 -0 -124 -142 -0 -0 -0 -0 -0 -0 -0 -0 -0 -0 -0 -0 -0 -0 -0 -0 -0 -0 -0 -0
-0 -0 -0 -0 -0 -0 -0 -0 -0 -0 -0 -0 -0 -0 -0 -0 -0 -0 -0 -0 -173 -160 -152 -0 -0 -0 -0 -0 -0 -0 -0 -0 -0 -0 -0 -0 -0 -0 -0 -0 -0 -0 -0
-0 -0 -0 -0 -0 -0 -0 -0 -0 -0 -0 -0 -0 -0 -0 -0 -0 -0 -0 -0 -0 -0 -0 -0 -0 -0 -0 -0 -0 -0 -0 -0 -0 -0 -0 -0 -0 -0 -0 -0 -0 -0 -0
-0 -0 -0 -0 -0 -0 -0 -0 -0 -0 -0 -0 -0 -0 -0 -0 -0 -0 -0 -0 -0 -0 -0 -0 -0 -0 -0 -0 -0 -0 -0 -0 -0 -0 -0 -0 -0 -0 -0 -0 -0 -0 -0
-0 -0 -0 -0 -0 -0 -0 -0 -0 -0 -0 -0 -0 -0 -0 -0 -0 -0 -184 -0 -0 -0 -0 -0 -0 -0 -0 -0 -0 -0 -0 -0 -0 -0 -0 -0 -0 -0 -0 -0 -0 -0 -0
-0 -0 -0 -0 -0 -0 -0 -0 -0 -0 -0 -0 -0 -0 -0 -0 -0 -0 -206 -0 -0 -0 -0 -0 -0 -0 -0 -0 -0 -0 -0 -0 -0 -0 -0 -0 -0 -0 -0 -0 -0 -0 -0
-82 -0 -0 -0 -0 -0 -0 -0 -0 -0 -0 -0 -126 -251 -210 -217 -0 -0 -262 -30 -0 -0 -0 -0 -0 -0 -0 -0 -0 -0 -0 -0 -0 -0 -0 -0 -0 -0 -0 -0 -0 -0 -0
-0 -222 -0 -0 -0 -0 -0 -0 -0 -0 -0 -0 -282 -248 -244 -285 -71 -0 -323 -260 -0 -0 -0 -0 -0 -0 -0 -0 -0 -0 -0 -0 -0 -0 -0 -0 -0 -0 -0 -0 -0 -0 -0
-378 -89 -0 -182 -0 -0 -0 -0 -0 -0 -0 -0 -111 -254 -223 -241 -159 -0 -0 -0 -0 -0 -0 -0 -0 -0 -0 -0 -0 -0 -0 -0 -0 -0 -0 -0 -0 -0 -0 -0 -0 -0 -0
-281 -316 -329 -0 -0 -0 -0 -0 -0 -0 -0 -0 -120 -322 -232 -212 -231 -262 -0 -0 -0 -0 -0 -0 -0 -0 -0 -0 -0 -0 -0 -0 -0 -0 -0 -0 -0 -0 -0 -0 -0 -0 -0
-0 -0 -161 -348 -0 -0 -0 -493 -490 -509 -418 -356 -338 -341 -282 -258 -219 -228 -0 -0 -0 -0 -0 -0 -0 -0 -0 -0 -0 -0 -0 -0 -0 -0 -0 -0 -0 -0 -0 -0 -0 -0 -0
-0 -0 -0 -0 -329 -80 -0 -263 -462 -465 -436 -388 -378 -329 -276 -273 -165 -0 -0 -0 -0 -0 -0 -0 -0 -0 -0 -0 -0 -0 -0 -0 -0 -0 -0 -0 -0 -0 -0 -0 -0 -0 -0
-0 -0 -0 -0 -386 -368 -0 -0 -439 -463 -423 -368 -211 -206 -0 -0 -0 -0 -0 -0 -0 -0 -0 -0 -0 -0 -0 -0 -0 -0 -0 -0 -0 -0 -0 -0 -0 -0 -0 -0 -0 -0 -0
-0 -0 -0 -0 -0 -7 -9 -579 -0 -0 -0 -0 -0 -0 -0 -0 -0 -0 -0 -0 -0 -0 -0 -0 -0 -0 -0 -0 -0 -0 -0 -0 -0 -0 -0 -0 -0 -0 -0 -0 -0 -0 -0
-0 -0 -0 -165 -485 -496 -0 -0 -0 -0 -0 -0 -0 -0 -0 -0 -0 -0 -0 -0 -0 -0 -0 -0 -0 -0 -0 -0 -0 -0 -0 -0 -0 -0 -0 -0 -0 -0 -0 -0 -0 -0 -0
-201 -416 -399 -0 -0 -0 -0 -0 -0 -0 -0 -0 -0 -0 -0 -0 -0 -0 -0 -0 -0 -0 -0 -0 -0 -0 -0 -0 -0 -0 -0 -0 -0 -0 -0 -0 -0 -0 -0 -0 -0 -0 -0
-11 -429 -0 -0 -0 -0 -0 -0 -0 -0 -0 -0 -0 -0 -0 -0 -0 -0 -0 -0 -0 -0 -0 -0 -0 -0 -0 -0 -0 -0 -0 -0 -0 -0 -0 -0 -0 -0 -0 -0 -0 -0 -0
-0 -0 -0 -0 -0 -0 -0 -0 -0 -0 -0 -0 -0 -0 -0 -0 -0 -0 -0 -0 -0 -0 -0 -0 -0 -0 -0 -0 -0 -0 -0 -0 -0 -0 -0 -0 -0 -0 -0 -0 -0 -0 -0
-0 -0 -0 -0 -0 -0 -0 -0 -0 -0 -0 -0 -0 -0 -0 -0 -0 -0 -0 -0 -0 -0 -0 -0 -0 -0 -0 -0 -0 -0 -0 -0 -0 -0 -0 -0 -0 -0 -0 -0 -0 -0 -0
-0 -0 -0 -0 -0 -0 -0 -0 -0 -0 -0 -0 -0 -0 -0 -0 -0 -0 -0 -0 -0 -0 -0 -0 -0 -0 -0 -0 -0 -0 -0 -0 -0 -0 -0 -0 -0 -0 -0 -0 -0 -0 -0
-0 -0 -0 -0 -0 -0 -0 -0 -0 -0 -0 -0 -0 -0 -0 -0 -0 -0 -0 -0 -0 -0 -0 -0 -0 -0 -0 -0 -0 -0 -0 -0 -0 -0 -0 -0 -0 -0 -0 -0 -0 -0 -0
-0 -0 -0 -0 -0 -0 -0 -0 -0 -0 -0 -0 -0 -0 -0 -0 -0 -0 -0 -0 -0 -0 -0 -0 -0 -0 -0 -0 -0 -0 -0 -0 -0 -0 -0 -0 -0 -0 -0 -0 -0 -0 -0
-0 -0 -0 -0 -0 -0 -0 -0 -0 -0 -0 -0 -0 -0 -0 -0 -0 -0 -0 -0 -0 -0 -0 -0 -0 -0 -0 -0 -0 -0 -0 -0 -0 -0 -0 -0 -0 -0 -0 -0 -0 -0 -0
-0 -0 -0 -0 -0 -0 -0 -0 -0 -0 -0 -0 -0 -0 -0 -0 -0 -0 -0 -0 -0 -0 -0 -0 -0 -0 -0 -0 -0 -0 -0 -0 -0 -0 -0 -0 -0 -0 -0 -0 -0 -0 -0
Wind_Speed
9 8 9 8 9 7 11 14 14 11 9 10 11 8 10 6 3 4 5 5 6 6 7 5 5 5 7 7 6 4 5 2 3 4 1 2 2 3 3 4 4 5 6
13 11 7 9 9 10 10 11 13 11 9 9 10 8 7 1 2 2 4 7 10 8 6 7 7 8 6 7 6 6 3 3 5 4 3 1 3 2 4 3 3 5 4
16 12 12 9 7 11 10 10 12 12 9 8 3 2 2 1 2 3 4 6 8 7 7 9 9 8 8 8 7 6 7 5 3 4 5 2 5 0 1 2 3 4 4
11 11 13 11 12 12 11 12 12 11 9 9 7 7 8 7 4 3 2 2 2 4 6 7 9 10 4 6 7 6 4 5 5 0 2 2 5 4 1 2 2 2 2
17 17 16 15 14 14 13 11 13 13 13 12 10 9 7 5 3 3 5 6 5 7 8 7 8 7 7 7 9 8 7 5 5 4 3 2 2 2 3 3 3 2 1
19 17 16 15 14 13 14 13 15 15 16 15 15 14 13 10 8 10 9 8 7 7 9 11 9 9 9 9 9 9 8 7 5 4 4 3 4 3 3 1 3 4 3
20 19 21 19 18 20 19 16 18 18 18 17 17 18 16 13 14 13 10 10 7 6 10 10 8 8 8 8 8 7 6 5 5 4 3 2 2 2 3 3 3 4 2
20 22 24 22 21 22 21 20 20 20 20 20 20 18 19 11 13 14 11 10 10 11 11 10 7 7 8 6 5 5 6 9 4 7 4 2 2 2 2 3 4 1 2
21 23 22 22 21 22 25 25 23 22 21 22 18 18 16 17 14 14 12 11 12 9 9 10 8 7 7 10 10 8 9 7 7 7 6 5 4 2 4 3 4 5 3
20 19 19 20 20 21 22 22 23 24 23 18 18 17 17 16 14 11 14 14 11 10 9 8 9 9 10 11 11 10 10 10 7 7 9 4 3 5 4 4 4 4 5
19 19 19 20 21 19 18 19 19 20 18 19 17 17 16 15 14 13 14 13 10 9 9 9 9 11 12 13 11 10 10 10 10 7 7 8 6 6 5 4 4 4 4
18 18 20 20 19 19 17 19 19 19 18 16 17 15 13 12 12 13 8 5 5 6 10 11 11 11 13 12 12 12 11 10 9 8 7 9 6 7 5 3 5 4 4
9 12 13 15 17 18 16 18 17 20 18 15 14 11 12 11 11 13 13 13 12 13 11 12 14 15 14 13 13 13 10 8 8 9 9 8 6 5 3 4 4 3 3
8 8 7 12 17 17 18 17 18 17 17 14 14 14 11 14 13 12 10 8 15 14 14 14 14 13 13 12 11 9 9 7 5 5 5 5 6 4 3 3 4 3 3
8 8 9 9 10 9 12 14 14 13 14 15 8 8 6 7 10 11 12 10 11 11 12 11 10 10 9 8 10 9 6 6 5 5 5 4 4 4 2 2 1 1 0
4 8 10 9 8 8 7 7 6 5 8 10 8 7 9 8 6 6 7 8 6 8 10 10 11 12 7 14 11 7 7 6 7 6 4 2 5 7 9 8 6 4 2
9 6 5 6 6 5 7 10 10 9 9 9 8 8 9 8 7 7 9 9 9 9 10 10 10 8 8 10 9 10 5 6 5 5 4 3 4 5 4 3 2 1 4
7 6 5 6 6 6 8 9 9 9 11 10 9 8 9 9 9 9 8 9 8 8 9 9 8 8 5 12 13 12 7 6 6 6 5 5 4 4 5 3 4 4 4
5 6 6 6 8 9 8 9 9 8 8 7 7 6 7 9 9 8 9 8 8 7 6 7 8 8 5 14 12 10 7 7 6 5 4 4 3 7 9 4 4 5 7
6 8 9 9 9 7 8 10 8 8 7 7 7 7 7 8 8 8 9 7 7 7 7 9 10 10 10 13 13 9 5 5 3 4 4 7 6 8 8 5 5 7 7
9 8 8 8 8 7 7 8 7 6 6 7 8 7 7 7 8 8 7 7 9 9 9 11 9 9 8 9 13 11 5 3 3 3 3 2 7 10 11 10 4 6 9
9 8 10 8 6 6 7 7 6 6 7 8 7 7 7 6 6 7 7 9 10 10 8 9 7 6 7 13 13 14 12 7 3 3 2 3 11 11 9 5 7 11 6
8 8 11 9 6 6 6 7 6 8 9 8 8 7 9 9 8 8 8 7 7 6 7 6 6 6 5 6 13 12 10 9 3 2 4 9 10 9 4 5 8 5 3
9 10 10 9 7 6 8 8 9 10 12 12 12 11 12 12 12 9 8 7 5 5 5 5 5 5 4 3 3 4 2 5 3 3 4 5 6 5 1 2 3 3 3
10 11 13 13 11 12 12 11 12 15 15 14 12 11 11 11 11 11 7 7 8 5 4 3 4 4 3 3 4 4 3 2 3 3 2 2 2 3 3 2 3 3 4
13 15 15 15 13 15 16 14 13 14 14 13 10 8 8 8 7 7 7 15 12 13 13 9 4 3 7 7 6 7 9 9 8 2 1 2 2 2 2 1 2 3 3
Wind_Direction
171 168 150 140 140 138 145 157 152 154 150 156 156 165 181 186 184 192 152 162 195 187 170 155 156 159 162 170 168 139 141 112 158 105 33 309 270 218 218 194 188 197 200
171 173 164 167 160 158 165 160 168 166 172 162 169 181 177 184 215 175 184 198 197 193 155 161 174 184 170 173 169 155 137 130 174 142 112 189 326 307 213 223 207 207 181
176 176 177 175 152 176 181 180 178 179 175 178 156 143 82 25 244 227 208 204 189 165 171 178 179 191 184 183 181 166 157 155 198 186 145 125 218 137 328 271 217 216 209
192 180 183 177 179 191 182 186 187 191 188 190 192 193 201 202 214 215 231 247 196 182 197 184 180 193 174 179 182 172 158 128 167 217 200 118 143 173 274 299 270 265 256
190 192 193 197 193 183 187 193 191 194 197 199 204 194 208 216 211 195 203 215 203 194 201 190 183 175 184 184 177 175 171 169 153 162 148 112 95 79 131 214 289 11 227
191 198 200 193 197 192 190 195 194 197 197 199 204 206 213 214 206 208 205 208 204 202 202 195 190 188 187 187 195 187 173 175 163 144 135 148 165 183 152 178 216 214 263
186 190 192 193 195 194 193 195 195 196 198 202 208 214 216 212 211 207 203 193 192 200 207 197 183 187 189 192 196 185 163 139 105 78 95 129 123 132 123 138 231 233 278
191 195 195 193 194 196 194 197 198 204 205 207 212 214 217 215 213 210 201 201 201 205 198 195 174 171 172 168 125 111 103 103 67 102 99 64 227 184 142 174 154 284 269
194 200 197 198 197 194 199 200 202 206 209 209 210 212 213 214 213 207 202 198 204 199 186 185 177 161 144 135 129 128 123 127 133 146 164 191 206 233 217 191 168 167 216
197 200 201 202 204 207 203 204 210 211 208 204 207 211 209 211 209 199 201 202 197 190 179 173 156 146 135 139 140 142 148 156 168 172 183 201 200 216 230 217 197 187 188
194 197 200 204 207 205 204 205 210 217 215 212 211 213 213 210 204 201 204 202 188 180 168 158 155 153 156 157 155 160 161 164 174 168 189 209 206 221 227 209 214 216 181
197 200 201 202 202 206 196 204 204 212 213 217 214 211 210 206 208 214 200 163 154 169 163 158 164 168 167 165 165 166 168 174 180 187 195 213 214 219 223 211 231 224 230
186 199 201 201 204 204 201 201 201 205 207 208 209 203 196 191 190 194 180 152 166 183 170 168 177 178 181 172 167 167 166 174 182 191 200 209 198 215 199 203 224 238 254
199 189 182 199 207 204 199 199 209 205 204 204 208 212 196 189 188 170 175 192 182 171 169 185 183 176 172 169 161 156 153 172 201 210 220 200 179 180 201 223 237 253 269
199 202 197 199 197 188 198 201 200 197 195 199 181 197 148 153 167 175 173 167 176 175 167 163 160 159 159 166 160 153 154 152 153 172 140 126 135 146 169 153 4 63 302
153 191 200 162 191 191 174 139 124 141 148 162 143 126 121 130 144 129 133 134 142 139 145 153 154 147 147 144 162 153 149 159 159 155 136 135 81 84 102 102 128 151 196
172 199 161 152 158 135 146 146 133 119 118 121 117 114 113 113 120 129 129 133 144 150 147 144 140 134 116 146 143 124 123 132 130 118 113 101 64 71 60 19 25 300 254
131 146 116 96 86 84 91 107 113 115 117 118 120 133 137 137 140 136 139 137 142 141 132 126 119 121 107 116 119 122 115 106 97 93 87 83 50 23 11 7 338 311 293
154 128 115 113 109 108 108 102 99 105 116 129 134 140 145 140 140 141 139 137 130 124 124 120 118 113 106 121 120 109 112 105 96 92 73 68 34 10 9 8 326 304 288
130 128 116 112 109 116 121 120 123 126 131 139 130 128 135 131 134 133 136 137 124 112 100 90 99 100 110 107 108 113 115 106 103 73 61 39 19 354 342 323 300 298 293
117 106 100 106 110 111 114 117 126 129 129 124 127 130 134 137 137 134 135 116 106 100 100 102 93 101 99 101 99 97 83 94 85 60 33 11 343 329 321 323 293 296 319
120 109 104 102 102 109 112 113 112 119 118 127 122 131 131 125 120 98 94 101 109 104 99 108 90 79 83 88 88 85 82 72 71 47 360 321 320 319 319 324 347 349 347
118 114 118 120 118 111 109 104 112 116 108 100 96 88 73 68 68 82 89 90 86 102 105 104 109 105 86 79 77 73 70 62 57 22 316 313 315 316 318 5 2 0 348
111 117 111 94 71 76 96 108 107 96 86 77 70 67 70 69 61 61 58 65 60 72 79 106 118 121 103 83 57 55 60 32 360 319 305 301 292 290 36 3 358 4 346
91 87 84 79 64 64 64 72 83 91 85 80 77 72 71 72 72 60 51 69 49 64 95 82 103 125 139 123 116 54 18 338 315 294 298 308 349 24 16 12 13 352 352
90 86 82 81 73 70 66 64 69 83 91 84 75 70 74 73 72 74 71 61 71 67 69 74 96 70 111 112 63 20 356 344 335 303 303 14 30 8 357 345 344 343 339